Weather History for Menominee, MI

Change the Weather History Date:

Tuesday, April 10, 2012

  Actual Average Record
Temperature  
Mean Temperature 38 °F -  
Max Temperature 44 °F 50 °F 82 °F (1955)
Min Temperature 32 °F 30 °F 17 °F (1979)
Degree Days  
Heating Degree Days 27    
Moisture  
Dew Point 19 °F    
Average Humidity 49    
Maximum Humidity 60    
Minimum Humidity 36    
Precipitation  
Precipitation 0.00 in - - ()
Sea Level Pressure  
Sea Level Pressure 30.03 in    
Wind  
Wind Speed 9 mph (NNW)    
Max Wind Speed 20 mph    
Max Gust Speed 25 mph    
Visibility 10 miles    
Events      
Averages and records for this station are not official NWS values.
T = Trace of Precipitation, MM = Missing Value Source: NWS Daily Summary

Daily Weather History Graph

Daily Weather History Graph

Search for Another Location

Airport:

Trip Planner

Search our weather history database for the weather conditions in past years. The results will help you decide how hot, cold, wet, or windy it might be!

Date:

Astronomy

Apr. 10, 2012 Rise Set
Actual Time 6:13 AM CDT 7:30 PM CDT
Civil Twilight 5:43 AM CDT 8:00 PM CDT
Nautical Twilight 5:06 AM CDT 8:37 PM CDT
Astronomical Twilight 4:28 AM CDT 9:16 PM CDT
Moon No Moon Rise 8:47 AM CDT (4/10)
Length of Visible Light 14h 17m
Length of Day
13h 16m
Waning Gibbous, 79% of the Moon is Illuminated
Apr 10
Waning Gibbous
Apr 13
Last Quarter
Apr 21
New
Apr 29
First Quarter
May 5
Full

Hourly Weather History & Observations

Time (CDT) Temp. Windchill Dew Point Humidity Pressure Visibility Wind Dir Wind Speed Gust Speed Precip Events Conditions
12:15 AM 33.8 °F 27.7 °F 17.6 °F 52% 30.00 in 10.0 mi NW 6.9 mph - N/A   Mostly Cloudy
12:35 AM 33.8 °F 28.6 °F 17.6 °F 52% 30.00 in 10.0 mi NW 5.8 mph - N/A   Mostly Cloudy
12:55 AM 33.8 °F 27.0 °F 17.6 °F 52% 30.00 in 10.0 mi NW 8.1 mph - N/A   Overcast
1:15 AM 32.0 °F 26.4 °F 17.6 °F 55% 30.00 in 10.0 mi WNW 5.8 mph - N/A   Overcast
1:35 AM 32.0 °F 26.4 °F 17.6 °F 55% 29.99 in 10.0 mi WNW 5.8 mph - N/A   Overcast
1:55 AM 32.0 °F 25.6 °F 17.6 °F 55% 29.99 in 10.0 mi WNW 6.9 mph - N/A   Overcast
2:15 AM 32.0 °F 25.6 °F 17.6 °F 55% 29.98 in 10.0 mi NW 6.9 mph - N/A   Overcast
2:35 AM 32.0 °F 24.2 °F 17.6 °F 55% 29.98 in 10.0 mi WNW 9.2 mph - N/A   Overcast
2:55 AM 32.0 °F 24.2 °F 19.4 °F 60% 29.98 in 10.0 mi NW 9.2 mph - N/A   Overcast
3:15 AM 33.8 °F 26.4 °F 19.4 °F 56% 29.98 in 10.0 mi NW 9.2 mph - N/A   Overcast
3:35 AM 33.8 °F 27.7 °F 19.4 °F 56% 29.98 in 10.0 mi NW 6.9 mph - N/A   Overcast
3:55 AM 33.8 °F 26.4 °F 19.4 °F 56% 29.98 in 10.0 mi NW 9.2 mph 16.1 mph N/A   Overcast
4:15 AM 33.8 °F 26.4 °F 21.2 °F 60% 29.97 in 10.0 mi NNW 9.2 mph - N/A   Overcast
4:35 AM 33.8 °F 26.4 °F 21.2 °F 60% 29.97 in 10.0 mi NW 9.2 mph 20.7 mph N/A   Overcast
4:55 AM 33.8 °F 25.8 °F 21.2 °F 60% 29.97 in 10.0 mi NW 10.4 mph 20.7 mph N/A   Overcast
5:15 AM 33.8 °F 27.0 °F 21.2 °F 60% 29.98 in 10.0 mi NNW 8.1 mph - N/A   Overcast
5:35 AM 33.8 °F 25.8 °F 21.2 °F 60% 29.98 in 10.0 mi NNW 10.4 mph - N/A   Overcast
5:55 AM 33.8 °F 27.0 °F 21.2 °F 60% 29.99 in 10.0 mi NNW 8.1 mph - N/A   Overcast
6:15 AM 33.8 °F 26.4 °F 21.2 °F 60% 29.99 in 10.0 mi NNW 9.2 mph - N/A   Overcast
6:35 AM 33.8 °F 24.8 °F 19.4 °F 56% 30.00 in 10.0 mi NNW 12.7 mph 17.3 mph N/A   Overcast
6:55 AM 33.8 °F 27.0 °F 19.4 °F 56% 30.00 in 10.0 mi NNW 8.1 mph - N/A   Overcast
7:15 AM 33.8 °F 27.7 °F 19.4 °F 56% 30.00 in 10.0 mi NNW 6.9 mph - N/A   Overcast
7:35 AM 33.8 °F 24.3 °F 19.4 °F 56% 30.00 in 10.0 mi NNW 13.8 mph 19.6 mph N/A   Overcast
7:55 AM 33.8 °F 24.8 °F 19.4 °F 56% 30.01 in 10.0 mi NW 12.7 mph 19.6 mph N/A   Overcast
8:15 AM 33.8 °F 26.4 °F 19.4 °F 56% 30.01 in 10.0 mi NNW 9.2 mph 20.7 mph N/A   Overcast
8:35 AM 33.8 °F 27.0 °F 19.4 °F 56% 30.01 in 10.0 mi NNW 8.1 mph 19.6 mph N/A   Overcast
8:55 AM 33.8 °F 25.3 °F 19.4 °F 56% 30.01 in 10.0 mi NNW 11.5 mph 21.9 mph N/A   Overcast
9:15 AM 35.6 °F 25.2 °F 19.4 °F 52% 30.01 in 10.0 mi North 18.4 mph 25.3 mph N/A   Overcast
9:35 AM 35.6 °F 27.5 °F 19.4 °F 52% 30.01 in 10.0 mi North 11.5 mph 21.9 mph N/A   Overcast
9:55 AM 35.6 °F 26.2 °F 19.4 °F 52% 30.02 in 10.0 mi North 15.0 mph 23.0 mph N/A   Overcast
10:15 AM 37.4 °F 29.3 °F 19.4 °F 48% 30.02 in 10.0 mi NW 12.7 mph 25.3 mph N/A   Mostly Cloudy
10:35 AM 37.4 °F 28.9 °F 17.6 °F 45% 30.02 in 10.0 mi North 13.8 mph 18.4 mph N/A   Mostly Cloudy
10:55 AM 35.6 °F 27.1 °F 19.4 °F 52% 30.02 in 10.0 mi NNW 12.7 mph 20.7 mph N/A   Overcast
11:15 AM 37.4 °F 30.8 °F 19.4 °F 48% 30.02 in 10.0 mi NW 9.2 mph 20.7 mph N/A   Overcast
11:35 AM 37.4 °F 28.5 °F 17.6 °F 45% 30.02 in 10.0 mi North 15.0 mph 23.0 mph N/A   Overcast
11:55 AM 37.4 °F 28.2 °F 19.4 °F 48% 30.03 in 10.0 mi NNW 16.1 mph 21.9 mph N/A   Overcast
12:15 PM 37.4 °F 28.9 °F 17.6 °F 45% 30.03 in 10.0 mi NNW 13.8 mph 23.0 mph N/A   Overcast
12:35 PM 39.2 °F 29.6 °F 17.6 °F 42% 30.02 in 10.0 mi NNW 19.6 mph 25.3 mph N/A   Overcast
12:55 PM 39.2 °F 30.5 °F 17.6 °F 42% 30.03 in 10.0 mi North 16.1 mph 21.9 mph N/A   Overcast
1:15 PM 39.2 °F 32.0 °F 19.4 °F 45% 30.03 in 10.0 mi NNW 11.5 mph 18.4 mph N/A   Overcast
1:35 PM 41.0 °F 33.5 °F 17.6 °F 39% 30.02 in 10.0 mi NNW 13.8 mph 18.4 mph N/A   Overcast
2:15 PM 42.8 °F 36.6 °F 17.6 °F 36% 30.02 in 10.0 mi NW 11.5 mph 25.3 mph N/A   Mostly Cloudy
2:35 PM 42.8 °F 35.1 °F 17.6 °F 36% 30.02 in 10.0 mi NNW 16.1 mph 23.0 mph N/A   Mostly Cloudy
2:55 PM 42.8 °F 37.0 °F 19.4 °F 39% 30.02 in 10.0 mi WNW 10.4 mph 20.7 mph N/A   Overcast
3:15 PM 42.8 °F 36.2 °F 19.4 °F 39% 30.02 in 10.0 mi WNW 12.7 mph 20.7 mph N/A   Overcast
3:35 PM 42.8 °F 37.0 °F 19.4 °F 39% 30.02 in 10.0 mi NNW 10.4 mph - N/A   Overcast
3:55 PM 42.8 °F 37.0 °F 17.6 °F 36% 30.02 in 10.0 mi NNW 10.4 mph 18.4 mph N/A   Overcast
4:15 PM 42.8 °F 35.4 °F 17.6 °F 36% 30.02 in 10.0 mi NNW 15.0 mph 20.7 mph N/A   Overcast
4:35 PM 42.8 °F 37.0 °F 17.6 °F 36% 30.03 in 10.0 mi NW 10.4 mph 20.7 mph N/A   Overcast
4:55 PM 44.6 °F 38.8 °F 19.4 °F 37% 30.02 in 10.0 mi NW 11.5 mph 20.7 mph N/A   Mostly Cloudy
5:15 PM 44.6 °F 39.2 °F 19.4 °F 37% 30.03 in 10.0 mi NW 10.4 mph 20.7 mph N/A   Mostly Cloudy
5:35 PM 42.8 °F 37.0 °F 17.6 °F 36% 30.04 in 10.0 mi NW 10.4 mph 17.3 mph N/A   Mostly Cloudy
5:55 PM 44.6 °F 38.8 °F 19.4 °F 37% 30.04 in 10.0 mi NNW 11.5 mph 18.4 mph N/A   Mostly Cloudy
6:15 PM 44.6 °F 39.2 °F 19.4 °F 37% 30.04 in 10.0 mi NNW 10.4 mph 17.3 mph N/A   Mostly Cloudy
6:35 PM 42.8 °F 37.0 °F 19.4 °F 39% 30.05 in 10.0 mi NNW 10.4 mph 18.4 mph N/A   Overcast
6:55 PM 42.8 °F 35.8 °F 19.4 °F 39% 30.06 in 10.0 mi NNW 13.8 mph 20.7 mph N/A   Scattered Clouds
7:15 PM 42.8 °F 35.1 °F 17.6 °F 36% 30.06 in 10.0 mi NNW 16.1 mph 20.7 mph N/A   Partly Cloudy
7:35 PM 39.2 °F 32.0 °F 19.4 °F 45% 30.07 in 10.0 mi North 11.5 mph 17.3 mph N/A   Clear
7:55 PM 39.2 °F 33.0 °F 19.4 °F 45% 30.08 in 10.0 mi North 9.2 mph - N/A   Clear
8:15 PM 39.2 °F 32.0 °F 19.4 °F 45% 30.10 in 10.0 mi North 11.5 mph 17.3 mph N/A   Clear
8:35 PM 37.4 °F 29.3 °F 19.4 °F 48% 30.11 in 10.0 mi NNW 12.7 mph 19.6 mph N/A   Clear
8:55 PM 37.4 °F 32.1 °F 19.4 °F 48% 30.11 in 10.0 mi NNW 6.9 mph - N/A   Clear
9:15 PM 37.4 °F 32.1 °F 19.4 °F 48% 30.12 in 10.0 mi NNW 6.9 mph - N/A   Clear
9:35 PM 35.6 °F 31.7 °F 17.6 °F 48% 30.12 in 10.0 mi NNW 4.6 mph - N/A   Clear
9:55 PM 35.6 °F 30.7 °F 17.6 °F 48% 30.12 in 10.0 mi NW 5.8 mph - N/A   Clear
10:15 PM 35.6 °F 29.2 °F 19.4 °F 52% 30.12 in 10.0 mi NW 8.1 mph - N/A   Clear
10:35 PM 35.6 °F 29.9 °F 19.4 °F 52% 30.12 in 10.0 mi NW 6.9 mph - N/A   Clear
10:55 PM 35.6 °F 30.7 °F 19.4 °F 52% 30.12 in 10.0 mi NW 5.8 mph - N/A   Partly Cloudy
11:15 PM 35.6 °F 29.9 °F 17.6 °F 48% 30.12 in 10.0 mi NW 6.9 mph - N/A   Clear
11:35 PM 35.6 °F 30.7 °F 19.4 °F 52% 30.12 in 10.0 mi NW 5.8 mph - N/A   Mostly Cloudy
11:55 PM 33.8 °F 27.7 °F 17.6 °F 52% 30.12 in 10.0 mi NW 6.9 mph - N/A   Overcast